FW4773 Riva MD US current weather conditions

sailwx.info

Wind from 160 at 1 knots gusting 6

Air temperature 5.0° C
Dewpoint -2.3° C

Last reported at 2019-Dec-08 15:46 UTC.
Time now 2019-Dec-08 16:23 UTC

Location: N 38°57' W 076°35'.
View on Google Maps.

See reports from other nearby stations

  
Tides and Currents Weather Stations Pressure Air Temp Water Temp Dewpoint Dewpoint Depression Visibility Wind Speed Wind Dir Waves Ship Positions
date/time (UTC)wind fromknots sea level pressurealtimeterstation pressurevisibilityair tempwater tempwave heightnotes
2019-Dec-08 16:00 163 1 gusting 5 5.0
2019-Dec-08 15:46 160 1 gusting 6 5.0
2019-Dec-08 15:30 139 1 gusting 6 4.4
2019-Dec-08 15:15 150 1 gusting 6 4.4
2019-Dec-08 15:00 241 3.3
2019-Dec-08 14:45 284 2.2
2019-Dec-08 14:32 284 1.1
2019-Dec-08 14:16 284 -0.0
2019-Dec-08 14:01 284 -0.6
2019-Dec-08 13:46 284 -1.7
2019-Dec-08 13:31 290 -2.8
2019-Dec-08 13:15 291 -3.9
2019-Dec-08 13:01 290 -4.4
2019-Dec-08 12:46 290 -5.0
2019-Dec-08 12:30 291 -5.6
2019-Dec-08 12:16 290 -5.6
2019-Dec-08 12:00 291 -5.6
2019-Dec-08 11:45 293 -5.0
2019-Dec-08 11:30 293 -5.0
2019-Dec-08 11:15 293 -5.0
2019-Dec-08 11:00 293 -5.0
2019-Dec-08 10:45 293 -5.0
2019-Dec-08 10:30 293 -5.0
2019-Dec-08 10:15 293 -5.0
2019-Dec-08 10:00 293 -5.0
2019-Dec-08 09:31 302 -5.0
2019-Dec-08 09:18 303 -5.0
2019-Dec-08 09:01 328 -4.4
2019-Dec-08 08:47 328 -4.4
2019-Dec-08 08:31 328 -4.4
2019-Dec-08 08:17 328 -4.4
2019-Dec-08 08:01 328 -4.4
2019-Dec-08 07:46 328 -4.4
2019-Dec-08 07:31 329 -4.4
2019-Dec-08 07:15 330 -4.4
2019-Dec-08 07:02 330 -4.4
2019-Dec-08 06:47 303 -4.4
2019-Dec-08 06:31 303 -3.9
2019-Dec-08 06:16 303 -3.9
2019-Dec-08 06:00 303 -3.9
2019-Dec-08 05:45 303 -3.9
2019-Dec-08 05:30 303 -3.3
2019-Dec-08 05:15 303 -3.3
2019-Dec-08 05:00 303 -3.3
2019-Dec-08 04:45 303 -3.3
2019-Dec-08 04:30 303 -3.3
2019-Dec-08 04:15 303 -3.3
2019-Dec-08 04:01 303 -3.3
2019-Dec-08 03:46 303 -2.8
2019-Dec-08 03:31 307 -2.8
2019-Dec-08 03:17 307 -2.8
2019-Dec-08 03:01 309 0 gusting 0 -2.8
2019-Dec-08 02:47 309 -2.2
2019-Dec-08 02:31 310 -2.2
2019-Dec-08 02:16 309 -2.2
2019-Dec-08 02:01 309 -2.2
2019-Dec-08 01:46 310 -1.7
2019-Dec-08 01:31 309 -1.7
2019-Dec-08 01:15 310 -1.7
2019-Dec-08 01:01 319 -1.7
2019-Dec-08 00:46 319 -1.1
2019-Dec-08 00:30 319 -1.1
2019-Dec-08 00:15 319 -0.6
2019-Dec-08 00:00 319 -0.0
2019-Dec-07 23:45 319 -0.0
2019-Dec-07 23:30 323 0.6
2019-Dec-07 23:15 323 1.1
2019-Dec-07 23:00 323 1.7
2019-Dec-07 22:45 323 2.2
2019-Dec-07 22:30 323 3.3
2019-Dec-07 22:17 323 3.9
2019-Dec-07 22:02 323 3.9
2019-Dec-07 21:46 011 4.4
2019-Dec-07 21:32 337 0 gusting 2 5.0
2019-Dec-07 21:16 350 1 gusting 5 5.0
2019-Dec-07 21:01 299 1 gusting 5 5.6
2019-Dec-07 20:46 329 6.1
2019-Dec-07 20:31 314 2 gusting 4 6.7
2019-Dec-07 20:15 302 0 gusting 4 6.7
2019-Dec-07 20:00 319 3 gusting 9 6.7
2019-Dec-07 19:45 259 0 gusting 3 6.7
2019-Dec-07 19:31 358 6.7
2019-Dec-07 19:15 324 1 gusting 6 6.7
2019-Dec-07 19:00 323 1 gusting 4 6.7
2019-Dec-07 18:45 019 4 gusting 8 6.1
2019-Dec-07 18:31 015 3 gusting 8 6.1
2019-Dec-07 18:15 020 2 gusting 6 6.1
2019-Dec-07 18:00 044 0 gusting 6 6.1
2019-Dec-07 17:45 233 1 gusting 8 6.1
2019-Dec-07 17:30 309 2 gusting 9 6.1
2019-Dec-07 17:15 096 3 gusting 8 6.1
2019-Dec-07 16:45 302 4 gusting 7 5.6
2019-Dec-07 16:15 034 1 gusting 4 5.0
2019-Dec-07 16:00 344 1 gusting 5 5.6
2019-Dec-07 15:45 095 2 gusting 6 5.0
2019-Dec-07 15:30 285 0 gusting 6 4.4
2019-Dec-07 15:16 003 1 gusting 7 4.4
2019-Dec-07 15:02 060 3 gusting 6 4.4
2019-Dec-07 14:46 066 4 gusting 8 3.9
2019-Dec-07 14:31 014 0 gusting 4 3.3
2019-Dec-07 14:17 008 2.8
2019-Dec-07 14:01 018 0 gusting 3 2.2
2019-Dec-07 13:47 299 1.1
2019-Dec-07 13:31 296 -0.0
2019-Dec-07 13:16 297 -0.6
2019-Dec-07 13:01 295 -1.7
2019-Dec-07 12:46 295 -1.7
2019-Dec-07 12:30 295 -1.7
2019-Dec-07 12:16 295 -1.7
2019-Dec-07 12:00 295 -1.1
2019-Dec-07 11:45 295 -0.6
2019-Dec-07 11:30 295 -0.0
2019-Dec-07 11:15 295 1.1
2019-Dec-07 11:01 011 1.1
2019-Dec-07 10:47 344 1.7
2019-Dec-07 10:31 355 1.7
2019-Dec-07 10:16 016 1.7
2019-Dec-07 10:01 004 2.2
2019-Dec-07 09:46 266 2.2
2019-Dec-07 09:31 354 2.2
2019-Dec-07 09:15 326 2.8
2019-Dec-07 09:02 339 0 gusting 3 2.8
2019-Dec-07 08:45 011 0 gusting 4 3.3
2019-Dec-07 08:30 349 0 gusting 5 3.3
2019-Dec-07 08:15 333 0 gusting 5 3.9
2019-Dec-07 08:00 002 0 gusting 7 4.4
2019-Dec-07 07:45 006 1 gusting 5 4.4
2019-Dec-07 07:32 014 1 gusting 8 5.0
2019-Dec-07 07:18 023 3 gusting 12 5.0
2019-Dec-07 06:46 298 3 gusting 8 6.1
2019-Dec-07 06:31 295 0 gusting 6 6.1
2019-Dec-07 06:16 354 2 gusting 10 6.7
2019-Dec-07 06:01 024 4 gusting 12 6.7
2019-Dec-07 05:45 018 3 gusting 11 7.2
2019-Dec-07 05:30 006 1 gusting 6 7.8
2019-Dec-07 05:15 335 2 gusting 9 7.8
2019-Dec-07 05:00 335 2 gusting 9 8.3
2019-Dec-07 04:45 309 2 gusting 6 8.3
2019-Dec-07 04:30 334 1 gusting 9 8.9
2019-Dec-07 04:15 040 3 gusting 11 8.9
2019-Dec-07 04:00 328 1 gusting 6 8.9
2019-Dec-07 03:47 150 8.9
2019-Dec-07 03:32 238 0 gusting 4 8.9
2019-Dec-07 03:16 312 8.9
2019-Dec-07 03:02 330 0 gusting 2 9.4
2019-Dec-07 02:46 302 0 gusting 1 8.9
2019-Dec-07 02:31 268 9.4
2019-Dec-07 02:16 008 10.0
2019-Dec-07 02:01 335 0 gusting 6 10.0
2019-Dec-07 01:47 307 0 gusting 6 10.0
2019-Dec-07 01:31 018 0 gusting 2 10.6
2019-Dec-07 01:16 255 0 gusting 2 10.6
2019-Dec-07 01:01 291 0 gusting 4 10.6
2019-Dec-07 00:46 259 10.6
2019-Dec-07 00:30 290 0 gusting 2 10.6
2019-Dec-07 00:15 281 10.6
2019-Dec-07 00:00 316 0 gusting 3 10.6
2019-Dec-06 23:46 253 10.6
2019-Dec-06 23:30 248 0 gusting 3 10.6
2019-Dec-06 23:15 248 1 gusting 3 10.6
2019-Dec-06 23:00 226 0 gusting 2 11.1
2019-Dec-06 22:46 256 0 gusting 3 11.1
2019-Dec-06 22:30 226 11.1
2019-Dec-06 22:15 251 11.1
2019-Dec-06 22:00 219 11.7
2019-Dec-06 21:45 277 0 gusting 2 11.7
2019-Dec-06 21:30 207 11.7
2019-Dec-06 21:15 307 0 gusting 5 11.7
2019-Dec-06 21:00 243 1 gusting 5 12.2
2019-Dec-06 20:45 250 1 gusting 6 12.2
2019-Dec-06 20:15 252 1 gusting 5 12.2
2019-Dec-06 20:01 256 1 gusting 6 12.2
2019-Dec-06 19:47 202 3 gusting 6 12.2
2019-Dec-06 19:31 226 1 gusting 6 12.2
2019-Dec-06 19:17 293 1 gusting 9 12.2
2019-Dec-06 19:01 218 3 gusting 7 12.2
2019-Dec-06 18:47 311 4 gusting 6 12.2
2019-Dec-06 18:31 206 1 gusting 7 12.2
2019-Dec-06 18:16 248 1 gusting 7 12.2
2019-Dec-06 18:01 236 1 gusting 8 11.7
2019-Dec-06 17:45 210 4 gusting 6 11.7
2019-Dec-06 17:30 230 2 gusting 6 11.1
2019-Dec-06 17:15 204 2 gusting 7 10.6
2019-Dec-06 17:00 210 4 gusting 6 10.6
2019-Dec-06 16:45 210 2 gusting 7 10.6
2019-Dec-06 16:30 248 6 gusting 10 10.6
2019-Dec-06 16:15 218 2 gusting 7 10.0
2019-Dec-06 16:00 184 4 gusting 9 10.0